Wind_Speed
13 10 8 7 7 8 10 12 15 16 15 15 15 14 14 13 13 12 11 11 11 10 8 8 7 7 6 6 5 5 6 7 8 9 9 8 7 7 7 8 9 9 10 10 11 12 14 16 18 19 20 21 21 21 22 22 22 22 21 21 19 19 19 18 18 19 19 20 21 21 21 20 20 19 18 17 19 21 21 21 17 12 11 13 15
16 14 12 12 11 11 12 12 13 14 14 14 13 13 12 12 12 11 11 10 9 8 8 8 7 7 6 6 6 7 8 8 9 9 8 8 7 7 7 9 10 10 10 10 11 13 14 16 18 19 20 21 21 22 22 22 22 21 21 21 20 19 18 18 18 19 19 20 21 21 21 20 19 19 18 17 20 21 21 20 16 13 12 14 16
18 16 14 13 12 12 12 11 11 11 10 10 10 10 10 10 10 9 8 8 7 7 7 7 6 7 7 8 8 9 9 9 9 9 8 7 7 7 8 9 10 10 10 11 11 13 14 15 17 18 19 20 21 22 22 22 21 21 22 22 21 20 19 18 18 19 19 20 21 21 20 19 19 20 18 18 21 21 20 18 17 16 14 14 15
22 20 17 15 13 12 11 10 10 9 8 8 7 8 8 8 8 7 7 8 8 8 7 7 8 8 8 9 10 10 10 10 9 9 7 7 8 8 9 9 10 10 10 11 11 13 14 15 17 18 19 20 21 22 21 21 21 20 22 22 22 22 21 20 19 19 19 20 20 20 19 19 20 20 18 19 21 22 20 17 17 18 17 15 14
26 24 22 19 17 16 15 13 11 11 9 8 8 8 8 8 7 8 9 9 10 10 10 10 10 10 10 10 11 11 10 10 9 7 7 8 8 9 9 10 10 10 10 11 12 13 14 16 17 18 19 20 20 21 21 21 20 20 21 22 22 22 22 21 20 19 20 20 20 19 19 19 20 20 19 20 22 22 19 16 17 18 18 16 15
28 27 26 24 22 22 21 19 17 15 13 12 11 10 10 10 10 10 11 12 13 13 12 11 10 10 11 11 11 11 10 9 8 7 7 8 9 9 9 9 10 10 10 11 13 14 15 16 17 18 19 19 20 20 20 20 19 19 20 22 22 22 22 21 20 20 20 21 20 19 19 20 21 20 19 21 22 21 18 16 18 18 19 19 19
28 28 28 28 26 25 25 24 22 20 19 17 16 15 14 14 14 14 14 14 14 14 13 11 11 11 11 11 11 10 9 8 7 7 8 9 9 9 10 10 10 10 11 12 14 15 16 17 18 19 19 20 19 19 19 19 19 18 19 22 22 22 21 21 21 20 21 21 19 19 20 21 21 20 20 21 21 20 17 16 18 19 20 20 21
27 28 29 29 29 28 27 26 25 24 23 21 20 19 18 18 17 16 16 15 15 14 13 12 12 12 11 11 10 9 8 7 7 8 9 10 9 10 10 11 11 11 12 13 15 16 17 18 19 19 20 20 19 19 19 19 19 17 18 21 21 21 21 21 21 20 22 21 19 19 21 21 21 20 20 20 21 20 16 16 18 20 20 20 22
26 27 28 29 29 29 29 28 27 26 25 24 23 22 21 20 19 18 17 16 15 14 14 13 12 12 11 10 9 8 7 7 9 10 10 10 10 11 12 12 11 12 13 14 16 17 17 18 19 20 20 19 18 19 19 20 19 18 18 19 21 22 22 22 22 21 22 20 19 20 21 21 21 20 20 20 21 19 16 17 20 20 20 20 23
26 26 26 26 27 28 28 28 28 26 25 24 24 23 22 21 19 18 17 16 15 14 13 13 12 11 10 9 8 8 8 9 10 10 10 10 11 12 12 12 12 13 14 15 17 18 18 19 19 19 19 19 18 19 20 20 20 19 18 18 20 21 23 23 23 23 22 19 20 22 22 21 20 19 20 20 20 18 17 19 21 21 21 21 24
26 26 25 25 24 25 25 26 26 25 24 24 23 22 21 20 19 17 16 15 14 13 13 12 11 10 9 9 8 9 10 11 11 10 10 11 11 12 12 12 13 14 15 17 18 18 18 19 18 17 17 18 18 18 20 20 20 20 19 18 19 21 23 24 24 23 21 20 21 23 22 21 20 19 20 19 18 17 17 20 22 22 21 23 25
26 26 25 25 24 24 24 24 23 23 22 22 21 20 19 18 17 16 15 14 13 13 12 11 11 10 9 9 10 10 11 11 11 10 10 11 12 11 12 12 13 15 16 17 18 18 18 17 17 16 17 18 17 17 19 20 20 19 19 19 19 21 23 24 24 23 20 20 23 23 22 20 19 19 19 19 18 17 18 20 22 22 22 24 25
26 26 25 25 24 23 23 23 23 22 21 20 20 19 18 18 18 17 16 15 14 13 13 12 12 11 11 11 11 12 11 11 10 10 10 11 11 11 12 13 14 15 16 17 18 18 17 17 17 17 18 18 17 17 18 19 19 19 18 18 19 21 23 24 24 22 20 21 23 23 21 20 19 19 19 19 18 18 19 21 22 22 22 24 25
25 25 25 24 24 23 23 22 22 21 20 19 19 18 18 18 17 17 16 15 14 14 13 13 12 12 12 12 12 11 11 10 10 10 10 11 11 11 12 12 13 14 15 16 17 17 17 17 18 18 18 17 17 17 17 17 18 18 18 18 19 21 23 24 23 21 20 21 23 22 21 19 19 19 19 19 19 18 19 21 22 22 23 24 25
25 24 24 24 23 23 23 22 21 21 20 18 17 17 16 16 15 15 15 14 14 14 13 13 13 12 13 13 12 11 11 11 10 10 11 11 11 11 12 12 13 14 14 16 17 17 17 17 18 17 17 17 16 16 16 16 17 17 18 18 19 21 22 23 23 21 20 21 22 22 20 19 19 19 20 20 19 19 20 22 23 23 23 25 26
25 24 23 23 23 22 22 21 21 21 20 19 18 17 16 15 14 13 14 14 14 14 14 14 14 13 13 13 12 11 11 11 10 10 11 11 11 12 12 13 14 14 15 16 16 16 17 17 16 17 16 16 16 16 16 16 17 17 18 19 20 20 21 22 23 21 20 21 22 21 19 19 19 20 21 21 20 20 21 22 23 23 24 25 27
25 24 24 23 23 22 21 21 21 21 20 19 18 17 17 16 15 14 14 14 14 14 14 14 14 13 12 12 11 10 10 10 10 9 10 10 10 11 12 13 14 15 15 16 16 16 16 16 16 16 17 16 16 16 16 17 18 18 19 19 20 20 21 22 22 21 20 21 21 20 19 19 20 21 22 21 21 21 21 23 24 24 25 26 27
25 24 24 23 23 22 22 21 21 20 20 19 18 18 17 16 15 14 14 13 13 12 12 12 12 11 11 10 10 9 9 9 9 9 9 10 10 11 12 13 14 14 15 16 16 15 15 15 16 17 17 17 17 17 18 19 20 20 20 20 20 20 21 22 22 21 21 21 21 20 19 19 21 22 23 22 22 22 22 23 24 24 25 26 28
25 24 24 24 23 22 22 21 21 20 20 19 19 18 17 16 16 15 14 14 13 12 11 10 10 9 9 9 9 9 9 9 9 9 10 10 10 11 12 13 14 14 15 15 14 14 15 16 16 17 18 18 19 19 20 21 22 22 21 21 22 22 22 23 23 22 21 21 21 21 20 21 22 23 24 24 23 22 23 23 24 25 26 26 28
25 25 24 23 23 23 22 22 21 20 20 19 19 19 18 17 16 16 15 14 13 12 11 10 10 9 9 9 9 9 9 9 9 10 11 11 11 11 12 13 14 14 14 14 15 15 16 17 17 18 19 20 21 22 22 22 23 23 23 24 25 25 26 26 25 24 24 23 23 22 21 23 24 25 25 25 24 23 23 24 24 25 26 26 27
24 24 24 23 22 22 22 22 21 21 20 20 20 19 18 17 17 16 15 14 13 12 12 11 10 10 10 9 9 9 9 9 9 9 10 11 12 12 13 14 15 15 15 16 16 17 17 18 19 20 21 22 23 23 24 25 26 27 28 29 30 30 30 30 29 28 27 26 26 25 24 25 26 26 26 26 25 24 24 24 24 25 25 26 26
23 23 24 23 22 22 22 22 22 21 21 21 20 20 19 18 17 16 15 15 14 13 12 11 11 10 10 10 10 10 9 9 10 10 10 11 12 13 14 15 16 16 17 17 18 18 19 20 21 22 24 24 25 26 27 29 31 32 33 34 35 36 36 35 34 34 33 32 31 29 29 29 29 29 29 28 26 25 24 24 24 24 24 25 25
21 22 22 23 23 22 22 22 21 21 21 21 20 20 19 19 18 17 16 16 15 14 13 13 12 11 11 12 12 12 11 11 11 11 12 13 14 14 15 16 16 17 18 18 19 20 21 22 23 25 26 27 28 29 31 34 35 36 37 38 39 40 41 40 40 40 40 39 37 36 35 34 34 33 32 31 29 27 25 24 24 23 23 23 24
20 20 21 22 22 22 22 21 21 21 21 21 20 20 19 19 18 18 17 17 16 16 15 14 14 14 14 15 15 15 14 14 13 14 14 15 16 16 17 17 18 18 19 20 21 22 23 24 26 27 29 30 31 33 35 36 37 39 40 41 42 43 43 44 44 44 44 44 44 43 42 41 40 38 36 35 33 30 27 25 24 23 22 22 22
18 19 19 20 21 22 22 21 21 21 21 20 20 20 20 19 19 19 19 18 18 17 17 17 16 16 17 17 18 17 17 16 16 16 16 16 17 18 18 19 20 21 22 23 24 25 26 27 28 30 31 32 34 36 38 38 39 41 42 43 44 44 45 45 46 46 46 47 47 48 48 47 46 44 43 41 38 35 32 28 26 24 22 22 22
17 17 18 19 19 20 21 21 21 20 20 20 20 20 20 20 20 20 20 19 19 19 19 18 18 18 19 19 19 19 19 18 18 18 17 18 18 19 20 21 22 23 24 26 27 28 29 30 31 32 33 34 36 38 39 39 40 42 43 44 44 45 46 46 47 47 47 48 49 49 50 50 50 49 48 47 44 42 38 35 31 27 25 23 22
17 16 16 17 17 18 19 20 20 20 20 20 19 20 19 20 21 21 20 20 20 20 19 19 19 19 19 20 20 20 20 20 20 19 19 19 20 20 22 23 24 26 27 29 30 31 31 32 33 34 35 36 37 38 39 40 41 42 43 44 44 45 45 46 47 47 48 48 49 49 49 50 50 50 50 50 49 47 45 42 39 35 31 28 25
17 17 16 16 16 16 17 18 19 19 19 19 19 19 19 19 20 21 21 21 21 21 20 20 20 20 20 21 21 21 21 22 22 22 21 21 22 22 24 25 27 28 30 31 31 32 33 33 34 34 35 36 37 37 37 38 39 40 41 41 41 42 43 43 44 45 45 46 47 47 48 48 49 49 49 50 50 49 49 47 45 43 40 37 33
16 16 16 15 15 15 15 16 17 17 18 19 18 18 18 19 19 19 20 22 22 22 22 21 21 22 22 22 23 23 23 23 23 24 23 23 23 24 25 27 29 30 31 31 32 32 33 33 33 33 34 34 34 34 35 35 36 36 37 37 38 39 39 40 41 42 43 43 44 44 45 46 46 47 47 48 48 48 49 48 47 47 46 44 42
14 15 15 15 14 14 14 14 15 15 16 17 17 18 18 18 18 18 19 21 22 23 23 23 23 24 24 24 24 24 24 24 24 24 24 24 24 25 26 28 29 30 31 31 31 32 32 32 31 31 31 31 31 31 31 32 32 33 34 34 34 35 36 37 38 39 40 41 42 42 42 43 43 44 44 44 45 45 46 46 46 47 47 47 46
12 13 14 14 13 13 14 13 13 13 14 15 16 17 17 17 17 17 18 20 21 22 23 24 25 25 25 25 25 25 24 24 24 24 24 23 24 25 26 28 29 29 30 30 29 29 28 28 28 28 27 28 28 28 28 28 29 29 30 31 31 32 32 33 35 36 37 38 38 39 39 39 40 41 41 41 42 42 42 42 43 44 45 45 45
9 11 13 13 12 12 12 12 12 11 12 12 13 14 15 15 16 16 16 18 19 20 22 23 24 25 25 25 24 24 23 23 23 23 23 23 24 25 26 26 27 27 28 28 27 26 26 25 25 25 25 25 25 25 26 26 26 26 27 27 28 28 29 30 31 32 33 34 34 35 35 36 36 37 37 38 38 39 39 39 39 40 41 42 42
8 8 11 11 11 11 10 10 10 10 10 10 11 11 12 13 14 14 15 16 17 18 19 21 22 23 24 24 23 22 22 21 21 21 21 22 23 24 24 24 25 25 25 23 21 20 19 19 20 21 21 21 21 22 22 23 23 24 24 24 25 25 26 26 27 28 29 29 30 31 31 32 33 33 34 34 35 35 36 36 37 37 38 38 39
7 7 9 10 10 10 9 9 9 8 8 8 8 8 9 10 11 12 13 13 15 16 17 18 19 21 21 22 22 21 20 20 20 19 20 20 21 22 22 22 22 22 22 19 17 15 14 15 16 17 17 17 18 18 19 19 20 20 21 21 21 22 22 23 23 24 24 25 26 27 28 29 29 29 30 30 31 32 32 33 33 34 35 35 35
6 7 8 9 9 8 8 8 7 7 7 6 6 6 6 7 8 9 10 10 11 12 13 14 16 17 18 19 20 19 18 18 18 18 18 18 19 20 19 19 19 19 19 18 17 15 14 13 14 14 13 13 14 14 15 15 16 16 16 17 17 18 18 19 19 20 20 21 22 23 24 25 25 26 26 27 27 28 29 29 30 31 31 31 31
3 5 7 8 8 7 6 6 6 6 6 5 5 4 4 5 5 6 6 7 8 9 10 11 12 13 14 15 16 16 16 15 15 16 16 17 18 18 18 18 18 17 17 16 16 14 12 12 11 11 11 10 10 11 11 11 12 12 13 13 14 14 15 15 16 17 17 18 19 19 20 21 22 23 24 24 24 25 25 26 27 27 28 28 28
3 1 3 6 7 6 5 4 4 4 5 4 4 3 2 2 3 3 3 4 4 5 6 8 9 9 10 11 12 13 13 13 13 13 14 15 16 16 16 16 16 15 15 14 14 13 12 11 10 9 8 8 8 7 7 8 8 8 9 10 11 12 12 13 14 15 16 17 17 18 18 19 20 21 22 22 22 22 23 23 23 24 25 25 25
6 4 1 2 5 5 5 3 2 3 3 3 3 2 1 1 1 1 2 1 1 2 3 4 5 6 7 8 9 9 10 10 10 10 11 12 13 14 14 14 13 13 13 12 12 11 10 9 7 6 5 4 4 4 5 5 5 6 7 8 9 10 11 12 14 15 15 16 16 17 17 18 19 20 21 21 20 20 20 20 21 21 22 22 22
10 9 7 3 2 3 4 4 2 1 2 2 2 2 1 1 2 1 1 0 0 1 1 1 2 3 3 5 6 7 8 8 8 8 8 9 11 11 11 11 11 11 10 10 9 8 7 6 5 4 2 1 1 3 4 4 5 6 6 7 8 9 10 11 13 14 15 15 15 16 17 17 18 18 19 19 19 18 18 17 18 19 19 19 19
13 14 13 9 5 3 2 3 2 1 1 1 1 1 1 1 2 3 3 2 2 2 3 3 2 2 2 3 4 5 6 7 7 7 8 8 9 10 10 11 10 10 9 9 8 7 7 6 5 3 2 2 2 3 4 5 6 7 8 8 9 10 11 12 12 13 14 14 15 15 15 16 16 16 17 17 17 16 15 15 15 15 15 16 16
15 16 17 16 11 7 6 5 4 3 2 2 2 2 2 2 3 3 4 5 4 4 4 4 5 5 4 4 4 5 6 7 8 9 9 9 10 10 11 11 11 11 10 10 9 9 8 8 7 6 5 5 5 5 6 7 8 9 10 11 11 12 13 14 14 13 13 13 14 14 14 14 14 14 14 15 15 14 13 13 12 11 11 12 12
16 17 18 18 16 13 11 10 8 7 6 5 5 4 4 4 4 5 6 6 6 6 6 6 7 7 7 7 7 7 7 8 9 10 11 12 12 13 13 13 13 12 12 11 11 10 10 9 9 9 8 8 7 8 8 9 10 11 12 13 13 14 14 15 16 16 15 14 14 14 14 13 13 13 13 13 12 12 11 10 10 9 9 8 8
20 19 19 18 18 18 17 15 14 12 10 9 8 8 7 7 7 7 7 8 8 8 9 9 9 10 10 10 10 10 10 10 10 11 13 14 14 15 14 14 14 13 13 13 13 13 12 12 12 12 11 11 11 11 12 12 13 13 14 15 15 16 16 16 15 16 17 17 16 14 13 13 13 13 13 12 10 9 8 8 8 7 7 6 5
23 22 22 21 21 21 21 21 19 16 15 13 12 11 11 10 11 10 10 10 9 10 10 11 12 12 12 13 13 14 14 13 13 14 15 16 16 16 15 15 15 15 15 16 16 16 16 16 15 15 15 15 14 15 15 16 16 16 16 17 17 16 17 17 17 16 16 17 17 17 15 13 14 14 14 12 11 8 7 7 7 7 6 5 4
27 26 25 25 25 24 23 22 22 20 18 17 16 14 13 13 14 14 14 13 12 11 11 12 13 14 15 15 15 15 15 15 16 17 18 19 18 17 16 16 16 17 18 18 19 19 19 18 18 17 17 17 17 18 18 18 19 19 19 19 20 19 18 19 20 20 18 17 17 18 18 16 15 15 15 13 11 9 7 6 6 6 7 6 6
31 30 29 29 30 30 27 24 23 22 21 21 20 19 18 17 17 17 17 16 15 14 13 13 13 14 16 17 17 17 17 16 16 17 19 19 19 19 18 17 17 18 19 20 21 22 22 21 20 19 19 20 20 20 20 20 20 21 21 21 22 22 20 20 21 23 23 22 20 19 19 20 18 17 17 15 13 10 8 7 6 6 6 7 7
35 34 33 33 33 33 31 30 29 27 26 25 25 25 24 22 21 20 19 19 19 18 16 15 15 15 16 17 17 18 19 19 18 18 19 19 19 19 19 19 20 20 21 21 22 23 23 23 22 21 21 22 22 22 22 22 22 23 23 22 23 25 24 22 23 25 26 28 26 23 21 21 22 21 19 16 14 12 10 9 8 6 6 7 8
38 38 37 37 37 36 35 34 33 32 31 31 31 30 29 28 26 24 22 22 21 21 20 19 19 19 19 18 17 18 19 20 21 22 21 21 20 19 19 20 21 21 21 21 23 24 25 25 24 24 23 23 24 24 24 24 24 25 25 24 24 26 26 23 22 23 24 26 27 25 21 20 21 21 20 18 16 14 12 10 9 9 8 8 9
40 40 39 39 40 39 38 38 36 35 36 37 36 34 33 32 30 28 26 25 24 23 22 22 22 22 22 21 20 18 18 19 21 23 24 24 23 22 21 21 22 22 21 22 24 26 26 26 26 26 26 25 25 25 25 25 25 26 27 26 25 25 25 21 18 19 21 22 24 24 21 18 17 17 18 19 17 17 16 13 10 10 10 10 10
42 41 40 41 41 41 40 40 38 36 38 40 39 36 35 33 32 30 29 28 26 25 24 24 24 25 25 24 23 21 20 20 21 22 23 25 25 24 24 24 24 23 23 24 25 26 27 28 28 28 27 26 25 25 25 25 26 26 27 27 25 24 23 20 17 17 18 19 21 23 21 18 16 14 15 18 18 17 18 17 13 12 11 11 12
46 44 43 43 44 43 41 41 40 38 39 41 40 39 37 36 35 34 33 32 30 28 27 26 25 26 26 27 27 26 25 24 23 22 22 24 25 25 25 25 25 25 25 26 26 27 28 29 29 29 29 28 27 25 25 25 26 27 27 28 27 26 25 23 20 18 17 16 18 22 22 19 17 15 14 17 18 17 18 20 18 15 13 13 13
Wind_Direction
118 133 140 145 146 152 162 171 183 193 198 203 213 220 225 227 225 227 233 241 249 249 233 219 222 218 198 172 151 133 124 118 114 102 89 83 75 66 62 64 66 59 49 40 34 30 27 30 32 31 30 28 25 23 23 22 21 21 22 23 24 25 25 24 22 21 18 17 17 18 17 17 17 18 25 31 26 23 20 21 34 58 66 54 44
87 94 100 107 112 116 126 139 155 168 178 187 194 199 203 206 212 222 233 239 236 225 216 215 212 192 165 145 129 120 116 112 102 90 83 78 70 63 63 65 62 52 44 38 34 32 31 32 32 31 30 26 24 23 23 22 20 20 22 23 23 24 24 23 22 20 19 18 16 16 14 15 17 18 24 27 26 24 20 25 46 70 70 51 36
72 77 82 90 97 101 107 114 123 134 144 156 169 180 190 200 209 217 218 211 199 194 197 194 175 152 133 123 114 109 106 98 88 82 78 71 65 63 64 62 54 47 42 36 35 35 32 32 31 31 28 25 24 23 23 21 19 20 22 23 23 23 23 22 22 21 21 19 16 14 13 15 18 20 24 24 26 24 22 35 60 74 69 51 38
66 69 73 80 89 97 101 104 109 115 124 138 154 167 177 184 187 184 176 171 167 163 159 148 132 120 111 106 102 98 94 88 84 81 73 66 65 65 63 56 49 42 39 36 36 36 33 30 29 29 26 24 23 23 22 20 18 19 23 23 24 26 25 25 25 24 23 19 15 15 15 17 20 23 26 24 25 23 25 47 68 72 68 57 48
65 68 72 78 86 95 100 103 106 111 117 126 136 145 149 152 152 152 150 147 139 132 126 119 113 109 105 101 96 94 91 88 86 78 69 65 67 66 58 50 44 40 38 37 36 35 33 30 28 27 25 23 23 23 21 20 18 19 23 23 25 28 29 29 28 26 22 18 17 18 20 20 20 26 28 25 26 23 29 57 74 72 66 61 55
67 69 72 76 82 88 93 96 97 100 102 106 110 114 117 121 126 129 129 126 120 116 114 112 111 109 105 103 101 100 98 93 86 75 69 68 68 62 51 44 42 39 37 36 34 34 33 30 29 27 25 23 23 23 22 19 17 19 23 24 25 27 29 29 27 23 20 17 19 23 24 22 22 28 31 27 26 25 35 62 73 67 60 56 54
69 70 72 75 78 82 86 88 89 89 88 88 91 95 100 104 107 112 113 113 112 112 112 111 110 106 102 101 103 103 101 94 84 75 72 71 64 53 47 43 41 38 36 33 32 33 31 30 30 27 25 23 22 24 23 19 18 20 24 25 25 25 26 26 24 20 17 18 23 27 27 24 24 29 31 28 27 29 43 65 67 60 54 52 53
70 71 73 75 78 80 82 85 86 86 85 84 85 89 93 96 99 102 104 106 107 108 109 108 103 100 98 99 100 99 95 87 78 74 71 65 56 50 49 45 41 37 33 31 31 32 31 30 29 27 24 21 22 27 24 20 20 21 24 26 24 22 22 22 20 17 15 21 29 31 29 26 28 32 31 28 28 35 52 67 66 57 52 52 53
68 71 74 76 78 80 81 83 85 86 87 88 89 91 92 95 97 99 101 102 103 105 104 102 100 98 99 99 97 93 87 80 76 74 66 58 54 53 52 48 43 38 34 32 32 31 29 28 27 25 23 20 24 30 26 23 22 22 23 24 22 20 20 20 19 17 17 26 34 32 29 30 33 34 32 30 31 41 61 71 67 58 54 54 54
66 69 73 76 78 81 82 83 84 85 87 88 90 92 94 95 96 97 98 99 99 100 99 98 99 99 100 97 92 89 84 81 78 70 61 57 57 57 55 51 45 40 35 32 31 29 27 28 28 25 22 22 27 32 28 25 24 23 23 22 21 19 18 19 20 19 23 33 36 31 30 33 37 36 33 33 35 47 67 72 67 60 56 56 55
65 67 70 74 77 81 83 85 86 87 87 88 88 90 91 92 93 93 93 93 93 93 94 95 97 96 95 92 89 87 85 83 77 69 64 62 60 58 56 52 48 42 36 32 30 29 29 30 29 25 24 27 31 33 29 26 24 25 25 22 21 18 18 21 23 24 31 38 34 30 32 37 39 38 36 36 40 55 72 73 66 60 57 57 54
65 67 68 71 74 78 82 84 86 87 88 88 89 89 89 90 90 90 90 90 90 89 90 91 91 91 90 90 89 88 86 82 76 71 70 67 63 60 58 55 51 44 38 34 31 30 34 33 29 26 28 31 32 32 31 26 24 26 26 24 21 18 20 23 26 30 38 40 33 29 34 40 40 41 41 41 48 63 75 74 67 61 58 58 55
65 67 69 70 72 75 78 81 83 85 86 87 89 90 91 92 91 91 90 90 90 90 89 89 89 89 89 89 90 89 86 82 78 77 75 71 67 62 59 56 51 46 41 38 34 34 36 33 30 30 32 33 31 30 30 26 24 25 26 23 21 20 22 26 30 35 43 39 30 30 37 42 44 45 46 46 55 69 77 75 68 64 62 60 57
65 66 67 69 70 72 74 76 79 81 83 84 86 89 90 91 92 92 91 91 91 90 90 89 89 89 88 88 87 86 83 80 77 75 73 70 66 61 56 54 52 49 46 43 40 38 38 34 30 32 34 32 29 27 27 26 24 25 25 24 23 23 25 29 33 39 44 36 29 33 40 45 48 50 51 52 61 73 80 77 72 68 65 62 60
66 66 67 68 68 70 71 72 73 75 77 79 81 83 85 86 88 92 93 93 92 91 90 89 89 90 90 90 87 84 82 79 76 73 69 64 59 54 50 49 50 49 48 47 43 39 39 34 29 32 33 29 26 25 27 28 27 26 27 27 26 26 27 32 36 42 43 34 30 37 44 48 53 54 55 58 66 77 83 80 75 72 69 65 63
67 67 68 69 68 68 69 70 70 70 70 71 73 75 77 79 81 85 90 93 93 92 93 91 91 91 91 92 91 89 87 83 80 75 71 64 57 51 46 47 47 48 50 48 44 40 39 35 30 30 31 28 26 27 30 31 31 31 30 30 30 29 31 36 40 44 43 34 33 41 47 53 57 58 60 63 71 81 85 82 79 75 72 69 66
67 68 68 69 69 68 68 68 68 68 67 67 67 68 70 72 75 77 81 85 89 93 95 95 95 95 95 96 95 93 90 86 82 76 71 66 60 54 50 50 50 50 51 49 44 41 39 36 34 32 31 31 31 32 34 36 37 37 35 34 33 32 35 41 44 46 43 36 39 46 52 57 60 61 63 67 75 84 87 86 82 79 75 72 69
68 69 70 69 69 69 68 68 67 67 67 66 65 65 65 66 69 72 75 77 80 85 90 93 94 96 96 95 92 87 80 77 73 69 65 62 58 57 55 56 57 53 53 51 47 44 42 40 39 37 36 37 38 39 39 40 41 40 39 38 38 39 43 47 48 49 46 43 46 52 56 59 61 63 66 69 77 86 90 88 85 82 79 76 73
67 69 71 71 71 70 69 69 68 67 67 67 66 65 64 64 63 65 68 70 71 73 76 80 81 84 84 82 78 72 66 63 59 59 59 55 52 53 56 59 61 60 57 55 52 49 47 45 44 44 42 42 44 44 43 44 45 45 45 45 46 48 51 53 53 52 51 51 53 56 58 60 63 65 67 71 79 87 91 91 88 85 82 79 77
65 67 70 72 73 73 72 71 70 69 68 68 67 67 66 65 64 63 63 64 65 66 66 67 67 68 69 69 67 63 59 56 54 55 55 52 48 49 56 62 66 65 64 62 59 56 53 50 49 49 49 48 48 49 49 50 52 54 54 56 57 58 58 58 58 57 58 58 59 59 60 61 63 66 69 73 80 88 92 92 91 88 85 82 79
64 65 67 70 73 74 75 74 73 72 71 69 68 69 68 68 67 67 66 67 67 67 67 66 66 65 63 62 60 59 57 56 54 52 52 51 48 48 57 65 68 68 67 65 63 59 57 55 54 55 56 55 55 57 59 61 63 63 64 64 64 64 63 62 62 62 62 62 62 61 61 62 63 66 69 73 80 87 91 92 92 90 87 84 82
65 64 65 67 71 73 74 75 74 74 73 72 70 70 71 71 70 69 70 71 71 71 70 69 67 65 63 61 61 61 62 63 60 57 56 56 55 55 61 66 69 69 68 67 65 63 61 60 60 63 64 65 66 67 69 70 70 70 70 69 68 68 67 66 65 65 64 63 63 62 62 62 63 65 67 72 77 84 88 91 92 91 89 86 84
68 66 65 65 67 70 72 73 74 74 74 74 74 73 72 72 71 71 71 71 71 71 70 70 68 64 63 63 64 65 66 66 66 65 64 65 66 66 68 70 71 71 71 71 70 69 68 68 69 72 73 74 74 75 75 74 74 74 73 72 71 70 69 68 67 66 65 64 64 63 63 62 63 64 66 69 73 79 84 88 91 91 91 89 86
71 69 66 64 65 67 69 70 72 73 73 74 75 75 74 74 72 72 72 71 70 70 69 68 67 65 64 64 65 66 67 67 68 69 71 73 75 76 75 76 76 76 76 76 75 75 76 77 78 79 79 80 80 78 77 76 75 75 74 73 72 71 70 69 67 66 66 65 64 64 63 63 63 64 65 67 69 73 78 82 87 90 91 90 88
69 70 69 66 64 64 66 67 69 71 72 73 74 74 74 74 73 71 71 70 69 69 70 69 69 69 69 69 69 70 70 70 71 72 74 76 77 78 80 80 81 81 81 81 81 82 83 84 84 84 84 83 83 81 79 78 76 75 74 73 72 71 70 68 67 66 65 65 64 64 63 63 63 63 63 65 66 69 72 76 80 85 88 89 89
67 69 71 70 67 64 64 65 67 69 70 70 71 72 71 72 72 70 69 69 68 68 70 71 73 74 75 75 75 76 76 76 76 76 77 78 78 79 81 83 84 85 86 87 88 88 88 88 88 87 86 85 83 83 81 80 78 76 75 74 72 71 70 69 67 66 65 64 63 63 63 62 62 62 63 63 64 65 67 70 73 77 81 84 86
67 68 70 71 70 68 65 64 65 67 68 68 68 68 68 69 70 69 68 67 67 68 70 72 75 77 79 79 81 82 83 83 83 82 81 80 80 82 84 86 88 89 91 92 92 92 91 91 90 89 88 87 86 85 84 82 80 78 77 75 74 73 72 71 69 68 67 65 64 63 62 62 62 62 62 63 63 64 65 66 68 70 73 76 79
71 70 69 70 71 69 67 64 63 63 65 66 67 66 65 65 66 67 68 68 68 69 71 73 76 79 81 83 85 87 87 88 88 87 85 84 85 86 89 91 93 95 96 96 95 95 94 93 92 91 91 90 88 87 85 83 82 80 78 76 75 74 73 72 71 70 68 67 66 64 64 63 62 62 62 62 62 63 63 64 65 66 68 70 72
77 74 73 72 71 70 68 65 63 61 61 61 63 64 63 62 61 62 65 66 68 71 73 75 78 80 82 85 87 88 89 90 90 89 87 87 89 91 94 96 98 99 99 99 98 97 96 95 94 93 93 91 90 88 87 84 83 81 79 78 75 74 73 72 70 69 68 67 66 65 64 63 63 62 62 63 63 63 63 63 64 64 65 67 68
83 81 78 76 76 75 71 67 64 61 60 59 59 59 61 60 57 56 60 63 65 70 73 75 77 80 82 84 86 86 87 89 89 89 90 91 93 95 98 100 101 102 101 101 99 99 99 97 96 95 94 93 91 90 88 86 84 82 80 78 76 74 72 72 70 68 67 65 64 64 63 63 62 62 62 62 63 63 63 64 64 64 64 65 66
86 89 86 82 81 81 79 75 70 65 61 58 57 56 57 59 56 51 54 57 60 66 70 72 75 78 80 81 83 84 86 88 89 91 92 95 97 99 101 104 104 105 105 103 102 101 101 99 98 97 95 93 90 89 87 86 84 82 80 78 76 74 72 70 68 67 66 64 63 62 61 60 59 60 60 60 61 61 62 63 64 65 65 65 65
75 89 93 90 87 86 86 85 80 73 67 60 57 54 54 55 55 51 50 52 54 59 64 68 72 74 77 80 81 84 86 88 91 94 97 100 102 105 106 108 108 108 108 106 105 104 102 99 98 97 93 90 87 86 85 84 83 81 79 77 74 72 71 69 66 65 64 63 62 60 58 56 55 55 56 56 57 58 60 61 62 63 64 65 65
63 78 91 95 94 94 94 94 92 87 80 71 63 58 53 52 52 52 49 49 51 54 58 64 69 72 75 78 80 83 86 89 93 97 102 105 108 110 112 113 113 113 112 110 108 105 102 100 99 96 93 89 86 84 82 80 79 78 76 74 72 69 67 66 64 63 62 61 59 57 56 54 52 51 50 50 50 52 54 57 59 60 62 63 64
68 72 79 86 93 97 100 104 105 102 98 92 82 71 61 54 51 51 50 49 51 53 56 60 66 70 73 76 79 82 85 89 94 98 104 108 111 114 115 117 117 117 117 115 113 111 110 108 105 100 95 92 88 86 82 78 76 74 72 70 69 66 64 62 61 59 58 57 55 53 52 50 49 48 46 45 44 45 46 49 52 55 58 60 61
71 79 79 77 80 88 99 109 117 119 117 113 105 95 82 67 57 52 51 51 53 55 59 61 65 68 71 74 78 81 85 91 98 103 108 113 116 118 119 121 122 122 121 119 119 119 119 117 114 106 100 95 91 88 83 78 75 72 69 67 65 63 61 59 58 56 54 52 50 48 46 45 44 43 41 40 39 40 40 41 44 48 52 56 58
48 83 83 77 73 73 85 102 119 128 132 134 130 120 105 93 76 63 56 54 54 58 62 67 69 71 73 75 79 82 86 93 102 111 117 122 125 127 128 128 128 128 129 128 128 128 125 124 124 116 107 101 95 89 83 78 73 68 65 62 59 57 55 52 50 48 47 44 42 40 38 36 35 35 35 35 34 34 35 36 37 40 45 50 55
312 38 79 69 65 63 66 84 110 126 134 142 145 143 134 120 105 87 73 59 57 62 66 71 75 78 80 82 85 87 89 95 105 116 124 130 134 136 137 137 137 138 138 138 139 137 134 133 133 126 116 106 96 87 79 74 68 61 56 52 48 45 42 39 37 36 35 34 32 29 27 25 25 26 27 29 29 29 29 30 32 33 35 40 45
271 270 265 41 47 46 44 51 89 125 129 132 143 157 174 179 151 109 94 79 63 65 74 79 82 87 90 94 97 98 99 102 109 120 130 139 144 147 147 148 149 148 150 150 149 149 147 145 142 136 125 108 88 72 60 53 46 40 34 31 31 31 29 28 27 26 25 24 23 21 18 16 17 18 21 24 26 27 27 27 27 28 29 31 35
260 263 259 270 4 23 20 18 14 152 145 127 137 158 179 225 258 266 260 226 273 271 240 140 117 115 113 113 116 119 121 123 125 131 140 148 155 161 163 165 165 165 165 166 166 167 168 167 164 158 147 107 45 20 14 11 9 5 1 1 6 12 16 18 17 16 16 15 15 15 13 12 13 14 17 20 23 24 26 27 27 26 26 27 29
264 265 260 260 275 297 312 334 338 281 200 161 158 189 220 240 256 265 265 259 249 254 265 263 248 220 196 175 161 157 156 154 154 157 164 170 174 179 183 185 186 187 188 189 192 196 201 205 209 215 232 267 307 323 334 338 340 340 339 341 344 348 355 359 1 4 5 5 7 10 10 10 11 12 13 15 18 20 21 24 27 28 27 26 28
266 271 264 256 258 269 271 272 276 276 271 261 238 234 245 259 265 266 265 264 253 244 247 259 264 264 257 245 225 207 195 189 183 182 185 191 195 198 199 201 203 204 207 210 213 219 225 232 238 245 256 272 287 301 310 318 323 326 329 332 333 334 337 342 346 349 352 353 356 0 4 6 7 8 8 7 9 11 12 14 19 25 28 27 28
254 269 269 258 255 264 269 264 261 258 264 274 275 265 252 251 259 263 264 265 260 251 241 238 242 247 252 256 255 246 233 221 213 208 206 207 209 211 212 213 214 216 220 225 229 234 240 247 252 257 264 272 281 291 300 307 311 315 318 321 323 324 325 328 331 334 338 341 344 348 353 357 360 0 360 360 0 359 359 1 5 11 17 21 23
242 250 259 259 258 263 265 262 261 259 255 258 269 277 272 261 255 255 256 258 258 258 253 246 240 237 238 241 245 248 249 245 239 233 227 221 220 220 221 224 226 229 233 237 241 245 249 255 259 264 268 272 278 285 291 296 300 304 308 310 312 314 315 316 318 321 325 328 332 336 340 344 348 350 352 351 350 348 342 340 343 348 354 359 6
243 241 244 247 251 260 265 262 261 261 257 251 256 269 276 273 266 261 259 257 255 256 259 258 255 250 246 243 243 243 244 247 249 250 247 242 236 232 230 231 233 236 240 243 247 250 253 256 259 263 268 272 276 279 284 288 291 295 299 302 305 307 309 310 310 311 312 314 318 321 326 330 334 338 342 343 341 337 326 317 318 319 321 326 328
246 242 239 236 238 246 255 259 261 261 259 255 253 258 268 274 271 267 266 265 261 256 256 257 259 261 259 258 257 253 250 248 249 252 256 256 255 252 248 243 242 242 243 245 247 250 252 256 258 261 264 267 271 274 277 280 284 287 290 293 295 299 302 304 305 307 306 305 306 309 313 318 322 325 329 332 332 329 320 305 300 299 299 299 300
247 246 242 237 235 235 238 246 252 253 254 255 254 254 261 269 271 269 270 272 271 266 261 259 259 261 263 264 265 265 264 261 257 257 259 262 264 266 265 262 258 255 253 253 253 253 254 256 259 260 262 263 265 269 272 274 276 280 283 286 288 290 293 295 297 300 301 300 298 299 302 307 310 313 316 319 320 319 313 302 292 286 285 286 286
247 247 245 242 240 239 238 239 242 243 244 248 250 252 256 263 267 268 269 271 273 271 269 268 266 264 264 266 269 271 271 271 270 268 266 266 267 267 268 268 267 265 265 265 266 265 264 263 264 264 264 266 267 268 272 275 276 277 280 282 284 286 289 291 293 294 296 295 294 292 293 297 301 303 304 306 307 307 304 298 291 281 273 271 275
246 245 245 244 243 243 243 243 241 240 242 244 247 250 252 256 260 264 265 265 267 267 266 266 267 266 266 268 270 272 273 273 274 274 273 271 270 269 268 268 268 269 271 272 272 272 271 271 270 269 269 270 271 272 274 276 278 279 280 281 283 285 288 291 293 294 294 294 293 291 288 290 294 297 296 295 295 293 290 288 285 279 270 263 263
245 243 243 244 244 244 246 246 243 241 242 245 247 250 253 256 258 261 262 262 263 265 264 263 262 262 263 265 267 269 271 270 271 273 274 275 276 276 276 275 274 273 272 271 271 272 273 273 273 272 272 272 274 275 278 279 281 282 283 283 283 285 287 290 292 292 292 293 295 293 289 285 288 291 289 288 288 287 284 278 272 269 267 262 259
243 243 242 243 243 244 245 247 246 242 242 246 248 250 254 259 262 263 263 263 263 265 267 267 265 263 261 261 261 262 263 264 267 270 273 275 277 278 278 279 279 278 276 272 272 274 275 275 275 276 276 276 277 278 280 281 283 284 286 287 287 287 289 290 289 287 288 291 295 296 294 287 284 284 280 279 280 283 283 280 272 266 264 263 261
241 243 244 243 242 243 244 246 246 244 243 245 247 249 253 256 259 261 262 262 260 261 264 267 268 267 264 262 260 257 254 254 259 265 269 272 275 276 277 279 280 281 280 278 277 277 277 277 278 279 279 280 280 280 280 281 282 284 286 288 290 291 292 293 293 290 288 287 288 292 295 293 287 282 275 272 272 273 277 280 279 273 265 262 263
Height
10965 10963 10961 10960 10959 10959 10959 10960 10960 10960 10961 10961 10961 10961 10962 10963 10964 10965 10966 10967 10968 10969 10969 10970 10970 10971 10972 10973 10973 10974 10974 10974 10974 10973 10972 10972 10972 10971 10971 10970 10970 10969 10969 10968 10967 10966 10965 10964 10963 10961 10960 10959 10957 10956 10954 10952 10950 10948 10946 10944 10942 10940 10939 10937 10935 10933 10931 10928 10926 10923 10921 10919 10917 10915 10913 10911 10909 10907 10905 10902 10900 10898 10897 10895 10894
10966 10965 10963 10962 10961 10961 10961 10961 10962 10962 10962 10963 10963 10963 10964 10965 10966 10967 10967 10968 10969 10969 10970 10971 10972 10973 10973 10974 10975 10975 10975 10975 10975 10974 10974 10973 10973 10972 10972 10971 10971 10970 10969 10969 10968 10967 10966 10965 10963 10962 10961 10959 10958 10956 10954 10952 10951 10949 10947 10944 10942 10941 10939 10937 10935 10933 10931 10929 10926 10924 10922 10919 10917 10915 10913 10911 10910 10908 10905 10903 10900 10899 10897 10896 10894
10966 10965 10964 10963 10962 10962 10962 10962 10962 10963 10963 10964 10964 10965 10965 10966 10967 10968 10968 10969 10970 10971 10972 10973 10974 10975 10976 10976 10976 10977 10977 10976 10976 10975 10975 10974 10974 10973 10972 10972 10971 10971 10970 10969 10968 10967 10966 10965 10964 10963 10962 10960 10958 10957 10955 10953 10951 10949 10947 10945 10943 10941 10939 10937 10935 10933 10931 10929 10927 10924 10922 10920 10917 10915 10913 10912 10910 10908 10906 10903 10901 10899 10898 10897 10895
10967 10966 10965 10964 10963 10963 10963 10963 10963 10964 10964 10965 10965 10966 10967 10967 10968 10969 10969 10970 10971 10973 10974 10975 10976 10977 10978 10978 10978 10978 10978 10977 10977 10976 10976 10975 10975 10974 10974 10973 10972 10972 10971 10970 10969 10968 10967 10966 10965 10963 10962 10961 10959 10957 10955 10954 10952 10950 10948 10946 10944 10941 10939 10937 10936 10933 10931 10929 10927 10924 10922 10920 10918 10916 10914 10912 10910 10908 10906 10904 10902 10900 10899 10898 10897
10970 10968 10967 10966 10966 10965 10965 10965 10965 10966 10966 10967 10967 10968 10968 10969 10970 10970 10971 10972 10974 10975 10976 10977 10978 10979 10979 10979 10979 10979 10979 10978 10978 10977 10977 10976 10976 10975 10975 10974 10973 10973 10972 10971 10970 10969 10968 10967 10965 10964 10963 10961 10959 10958 10956 10954 10952 10950 10948 10946 10944 10942 10940 10938 10936 10934 10932 10929 10927 10925 10923 10920 10918 10916 10914 10912 10911 10909 10907 10904 10903 10901 10900 10899 10898
10973 10972 10970 10969 10969 10968 10968 10968 10968 10968 10968 10969 10969 10970 10970 10971 10972 10973 10974 10975 10976 10977 10978 10979 10980 10980 10980 10980 10980 10979 10979 10979 10979 10978 10978 10977 10977 10976 10976 10975 10974 10974 10973 10972 10971 10970 10968 10967 10966 10965 10963 10962 10960 10958 10957 10954 10952 10951 10949 10947 10945 10942 10940 10938 10936 10934 10932 10930 10928 10925 10923 10921 10918 10916 10914 10913 10911 10909 10907 10905 10904 10903 10901 10900 10899
10976 10975 10973 10972 10971 10970 10970 10970 10970 10970 10971 10971 10972 10972 10973 10973 10974 10975 10976 10977 10978 10979 10980 10980 10981 10981 10981 10981 10980 10980 10980 10980 10979 10979 10979 10978 10978 10977 10977 10976 10975 10975 10974 10973 10972 10970 10969 10968 10967 10965 10964 10962 10960 10959 10957 10955 10953 10951 10949 10947 10945 10943 10941 10939 10937 10935 10933 10931 10928 10926 10924 10921 10919 10917 10915 10913 10912 10910 10908 10906 10905 10903 10902 10901 10900
10979 10978 10976 10975 10974 10974 10973 10973 10973 10973 10973 10974 10974 10975 10975 10976 10977 10978 10979 10980 10980 10981 10981 10982 10982 10982 10982 10982 10982 10981 10981 10981 10980 10980 10980 10979 10979 10978 10977 10977 10976 10976 10975 10974 10973 10971 10970 10969 10967 10966 10964 10963 10961 10959 10957 10955 10953 10951 10950 10948 10946 10944 10942 10940 10938 10936 10933 10931 10929 10927 10924 10922 10919 10917 10916 10914 10912 10911 10909 10907 10906 10904 10903 10902 10901
10982 10981 10980 10979 10978 10977 10977 10977 10976 10977 10977 10977 10977 10978 10978 10979 10980 10981 10981 10982 10982 10982 10983 10983 10983 10983 10983 10983 10983 10983 10982 10982 10982 10982 10981 10981 10980 10979 10979 10978 10978 10977 10976 10975 10973 10972 10971 10969 10968 10967 10965 10963 10962 10960 10958 10956 10954 10952 10950 10948 10946 10944 10942 10940 10938 10936 10934 10932 10930 10928 10925 10923 10920 10918 10917 10915 10913 10911 10910 10909 10907 10906 10905 10904 10902
10985 10984 10983 10982 10981 10981 10980 10980 10980 10980 10980 10980 10980 10981 10981 10982 10982 10983 10983 10984 10984 10984 10984 10984 10984 10984 10984 10984 10984 10984 10983 10983 10983 10983 10982 10982 10981 10981 10980 10979 10979 10978 10977 10976 10974 10973 10972 10970 10969 10967 10966 10964 10962 10961 10959 10957 10955 10953 10951 10949 10947 10945 10943 10941 10938 10936 10934 10932 10930 10928 10926 10924 10921 10920 10918 10916 10914 10912 10911 10910 10908 10907 10906 10905 10903
10988 10987 10986 10985 10984 10984 10983 10982 10982 10983 10983 10983 10984 10984 10984 10984 10984 10985 10985 10985 10986 10986 10985 10985 10985 10985 10985 10985 10985 10985 10985 10984 10984 10984 10984 10983 10982 10982 10981 10980 10980 10979 10978 10976 10975 10974 10972 10971 10970 10968 10967 10965 10963 10962 10960 10958 10956 10953 10951 10949 10948 10946 10943 10941 10939 10936 10934 10933 10931 10929 10927 10925 10923 10921 10919 10917 10915 10914 10913 10911 10910 10909 10908 10906 10904
10991 10990 10989 10988 10988 10987 10986 10985 10985 10985 10985 10986 10986 10986 10986 10986 10986 10986 10987 10987 10987 10987 10987 10987 10987 10986 10986 10986 10986 10986 10986 10985 10985 10985 10985 10984 10983 10983 10982 10981 10980 10979 10978 10977 10976 10975 10973 10972 10971 10969 10967 10966 10964 10962 10961 10959 10956 10954 10952 10950 10948 10946 10944 10941 10939 10937 10935 10933 10932 10929 10927 10926 10924 10922 10921 10919 10917 10915 10914 10913 10911 10910 10910 10908 10906
10994 10993 10993 10992 10991 10990 10989 10988 10988 10988 10988 10988 10988 10988 10988 10988 10988 10988 10988 10988 10988 10988 10988 10988 10988 10988 10988 10987 10987 10987 10987 10987 10987 10986 10986 10985 10984 10984 10983 10982 10981 10980 10979 10978 10976 10975 10974 10973 10972 10970 10968 10967 10965 10963 10961 10959 10957 10955 10953 10951 10949 10947 10944 10942 10940 10938 10936 10934 10932 10930 10929 10927 10925 10924 10922 10920 10918 10917 10916 10915 10913 10913 10912 10910 10909
10997 10996 10995 10995 10994 10993 10992 10992 10991 10990 10990 10990 10990 10990 10990 10990 10990 10990 10990 10990 10990 10989 10989 10989 10989 10989 10989 10989 10989 10989 10988 10988 10988 10988 10987 10986 10985 10985 10984 10983 10981 10980 10979 10978 10977 10976 10975 10974 10973 10971 10969 10968 10966 10964 10962 10960 10958 10956 10953 10951 10949 10947 10945 10943 10941 10939 10937 10936 10934 10931 10930 10928 10927 10925 10923 10922 10920 10919 10918 10917 10916 10915 10914 10913 10911
11000 10999 10998 10997 10997 10996 10995 10994 10994 10993 10993 10992 10992 10992 10992 10991 10991 10991 10991 10991 10991 10991 10991 10990 10990 10990 10990 10990 10990 10990 10990 10990 10989 10989 10988 10987 10986 10985 10984 10983 10982 10981 10980 10979 10978 10977 10976 10975 10974 10972 10970 10969 10967 10965 10963 10960 10958 10956 10954 10952 10950 10948 10946 10944 10942 10940 10938 10937 10935 10933 10931 10930 10928 10927 10925 10923 10922 10920 10920 10919 10918 10917 10916 10915 10914
11002 11001 11001 11000 10999 10998 10997 10997 10996 10995 10995 10995 10994 10994 10993 10993 10993 10993 10992 10992 10992 10992 10992 10992 10991 10991 10991 10991 10991 10991 10991 10991 10990 10990 10989 10988 10987 10986 10985 10984 10983 10982 10981 10980 10979 10978 10977 10976 10974 10972 10971 10969 10967 10965 10963 10961 10959 10957 10955 10953 10951 10949 10947 10945 10943 10941 10940 10938 10936 10934 10933 10931 10930 10928 10926 10925 10923 10922 10922 10921 10920 10920 10919 10918 10916
11004 11003 11003 11002 11001 11000 10999 10999 10998 10997 10997 10997 10996 10996 10995 10995 10995 10995 10994 10994 10993 10993 10993 10993 10993 10993 10993 10993 10993 10992 10992 10992 10991 10991 10990 10989 10988 10987 10986 10985 10984 10983 10981 10981 10980 10979 10978 10977 10975 10973 10971 10970 10968 10966 10964 10962 10960 10958 10956 10954 10952 10950 10948 10946 10944 10942 10941 10939 10938 10936 10935 10933 10931 10929 10928 10926 10925 10924 10924 10923 10923 10922 10921 10920 10919
11006 11005 11005 11004 11003 11002 11001 11001 11000 10999 10999 10998 10998 10997 10997 10997 10997 10996 10996 10995 10995 10995 10994 10994 10994 10994 10994 10994 10994 10994 10993 10993 10992 10991 10991 10990 10989 10988 10986 10985 10984 10983 10982 10981 10981 10980 10979 10977 10975 10974 10972 10970 10969 10967 10965 10963 10961 10959 10957 10955 10953 10952 10950 10948 10946 10944 10942 10941 10939 10938 10937 10935 10933 10931 10930 10928 10927 10926 10926 10926 10925 10924 10924 10923 10922
11009 11007 11006 11006 11005 11004 11003 11003 11002 11001 11001 11000 10999 10999 10999 10999 10998 10998 10997 10997 10997 10996 10996 10996 10996 10996 10996 10995 10995 10995 10994 10994 10993 10992 10991 10990 10989 10988 10987 10986 10985 10984 10983 10982 10981 10980 10979 10978 10976 10974 10973 10972 10970 10968 10966 10964 10962 10960 10959 10957 10955 10953 10952 10949 10947 10946 10944 10943 10941 10940 10939 10937 10935 10933 10932 10930 10929 10929 10928 10928 10927 10927 10926 10925 10924
11011 11010 11008 11007 11006 11006 11005 11005 11004 11003 11003 11002 11001 11001 11001 11000 11000 10999 10999 10999 10998 10998 10998 10998 10998 10998 10997 10997 10997 10996 10996 10995 10994 10993 10992 10991 10990 10989 10988 10987 10985 10984 10984 10983 10982 10981 10980 10979 10977 10976 10974 10973 10972 10970 10968 10966 10964 10962 10961 10959 10957 10956 10954 10951 10950 10948 10946 10945 10943 10942 10941 10940 10938 10936 10934 10933 10932 10931 10931 10930 10930 10929 10929 10928 10927
11013 11012 11011 11009 11008 11007 11007 11006 11006 11005 11004 11004 11003 11003 11002 11002 11001 11001 11001 11000 11000 11000 11000 11000 10999 10999 10999 10998 10998 10997 10996 10996 10995 10994 10993 10992 10991 10990 10989 10988 10987 10986 10985 10984 10983 10982 10981 10980 10979 10977 10976 10975 10974 10972 10971 10969 10967 10965 10964 10962 10960 10958 10956 10954 10953 10951 10949 10947 10946 10945 10944 10942 10941 10939 10937 10935 10934 10934 10933 10933 10932 10932 10931 10930 10929
11016 11014 11013 11012 11011 11010 11008 11008 11007 11007 11006 11005 11005 11004 11004 11003 11003 11003 11002 11002 11002 11001 11001 11001 11001 11000 11000 10999 10998 10998 10997 10996 10996 10995 10994 10993 10992 10991 10990 10989 10988 10987 10986 10985 10984 10983 10982 10982 10981 10979 10978 10977 10976 10975 10974 10972 10970 10969 10967 10965 10964 10961 10959 10958 10956 10955 10952 10950 10949 10948 10947 10945 10944 10942 10940 10939 10937 10936 10936 10935 10935 10934 10934 10933 10932
11018 11017 11016 11014 11013 11012 11011 11010 11009 11008 11008 11007 11007 11006 11006 11005 11005 11004 11004 11003 11003 11003 11002 11002 11002 11001 11001 11000 10999 10999 10998 10997 10997 10996 10995 10994 10993 10992 10991 10990 10989 10988 10987 10986 10985 10985 10984 10983 10983 10982 10981 10980 10979 10978 10977 10975 10974 10972 10971 10969 10967 10965 10963 10962 10960 10958 10956 10954 10953 10952 10950 10949 10947 10945 10944 10942 10941 10940 10939 10938 10938 10937 10936 10936 10935
11020 11019 11018 11017 11015 11014 11013 11012 11011 11010 11010 11009 11008 11008 11007 11007 11007 11006 11005 11005 11004 11004 11004 11003 11002 11002 11001 11001 11000 10999 10999 10998 10998 10997 10996 10995 10994 10993 10992 10992 10991 10990 10989 10988 10987 10986 10986 10985 10985 10984 10983 10983 10982 10982 10981 10980 10979 10976 10975 10973 10972 10970 10968 10966 10964 10962 10960 10959 10958 10956 10955 10953 10951 10949 10948 10946 10944 10943 10943 10942 10941 10940 10940 10939 10938
11022 11021 11020 11019 11018 11017 11015 11014 11013 11012 11012 11011 11011 11010 11009 11008 11008 11007 11007 11006 11006 11005 11005 11004 11003 11003 11002 11001 11001 11000 11000 11000 10999 10999 10998 10997 10996 10995 10994 10994 10993 10992 10991 10990 10989 10989 10988 10988 10987 10987 10986 10986 10985 10985 10984 10984 10983 10980 10979 10977 10976 10974 10972 10971 10969 10967 10966 10964 10963 10962 10960 10958 10956 10954 10952 10950 10949 10947 10946 10946 10945 10944 10943 10942 10941
11024 11023 11022 11021 11020 11019 11018 11017 11016 11015 11014 11014 11013 11012 11011 11010 11009 11009 11008 11008 11007 11007 11006 11005 11005 11004 11003 11002 11002 11001 11001 11001 11001 11000 11000 10999 10998 10998 10997 10996 10995 10995 10994 10993 10992 10992 10991 10991 10991 10990 10990 10989 10989 10988 10988 10987 10986 10984 10983 10982 10980 10979 10977 10975 10974 10972 10971 10970 10968 10967 10965 10963 10961 10959 10958 10956 10954 10952 10951 10950 10949 10948 10946 10945 10944
11027 11026 11025 11023 11022 11021 11020 11019 11019 11018 11017 11016 11015 11014 11013 11012 11011 11010 11010 11010 11009 11009 11008 11007 11006 11005 11004 11003 11003 11002 11002 11002 11002 11002 11002 11001 11001 11000 11000 10999 10998 10998 10997 10997 10996 10996 10995 10995 10994 10994 10994 10993 10993 10992 10991 10990 10990 10988 10987 10986 10985 10983 10982 10980 10979 10977 10976 10975 10973 10972 10970 10969 10967 10965 10963 10961 10959 10958 10956 10955 10953 10952 10950 10949 10947
11028 11028 11027 11026 11025 11024 11023 11022 11021 11020 11019 11018 11017 11016 11015 11014 11013 11013 11012 11012 11011 11011 11010 11009 11008 11007 11006 11005 11004 11004 11003 11003 11003 11003 11003 11003 11003 11003 11003 11002 11002 11001 11001 11000 11000 11000 10999 10998 10998 10998 10997 10997 10996 10996 10995 10994 10993 10992 10991 10990 10989 10988 10987 10985 10984 10983 10981 10980 10979 10977 10976 10974 10972 10971 10969 10967 10965 10964 10962 10960 10959 10957 10955 10953 10951
11030 11029 11029 11028 11027 11026 11025 11024 11023 11022 11021 11020 11019 11018 11017 11017 11016 11015 11014 11014 11013 11013 11012 11011 11010 11009 11008 11007 11007 11006 11005 11005 11005 11005 11005 11005 11006 11006 11006 11006 11006 11005 11005 11004 11004 11004 11003 11002 11001 11001 11001 11000 11000 10999 10998 10997 10996 10995 10995 10994 10993 10992 10991 10990 10988 10987 10986 10985 10984 10983 10981 10980 10978 10977 10975 10973 10971 10969 10968 10966 10965 10963 10960 10958 10956
11031 11030 11030 11029 11029 11028 11027 11026 11025 11024 11023 11022 11022 11021 11020 11019 11018 11018 11017 11016 11016 11015 11014 11014 11013 11012 11011 11010 11009 11009 11008 11008 11008 11007 11008 11008 11009 11009 11009 11009 11009 11009 11009 11008 11008 11008 11007 11006 11005 11005 11004 11004 11003 11002 11001 11000 11000 10999 10998 10997 10997 10996 10995 10994 10992 10991 10990 10989 10988 10987 10986 10985 10984 10982 10980 10979 10977 10975 10974 10972 10970 10968 10966 10964 10961
11032 11031 11030 11030 11030 11029 11028 11027 11027 11026 11025 11024 11023 11023 11021 11021 11020 11020 11019 11018 11018 11017 11016 11016 11015 11014 11014 11013 11012 11012 11012 11011 11011 11011 11011 11011 11011 11011 11012 11012 11012 11012 11012 11011 11011 11011 11011 11010 11009 11008 11007 11007 11006 11005 11004 11003 11003 11002 11001 11000 11000 10999 10998 10997 10996 10995 10994 10993 10992 10991 10990 10989 10988 10987 10985 10984 10983 10981 10980 10978 10976 10974 10972 10969 10967
11033 11032 11031 11030 11030 11029 11029 11028 11028 11027 11027 11026 11025 11024 11023 11023 11022 11022 11021 11020 11020 11019 11018 11018 11017 11017 11016 11016 11015 11015 11015 11015 11014 11014 11014 11014 11014 11014 11014 11014 11014 11014 11014 11014 11014 11014 11014 11013 11012 11012 11011 11010 11010 11009 11008 11007 11006 11005 11005 11004 11003 11002 11001 11000 10999 10998 10997 10996 10995 10995 10994 10993 10992 10990 10990 10989 10987 10986 10985 10983 10981 10979 10977 10975 10973
11034 11033 11032 11031 11030 11030 11029 11029 11028 11028 11027 11027 11026 11025 11025 11024 11024 11023 11022 11022 11021 11020 11020 11020 11020 11019 11019 11019 11018 11018 11018 11018 11018 11017 11017 11017 11017 11016 11016 11016 11016 11016 11016 11016 11016 11016 11016 11016 11016 11015 11014 11013 11013 11012 11011 11010 11010 11009 11008 11007 11006 11006 11005 11003 11002 11001 11000 10999 10999 10998 10997 10996 10995 10994 10993 10992 10991 10990 10989 10988 10986 10984 10982 10981 10979
11035 11034 11033 11032 11031 11030 11030 11029 11029 11028 11028 11028 11027 11027 11026 11026 11025 11024 11024 11023 11023 11022 11022 11022 11022 11022 11021 11021 11021 11021 11021 11021 11021 11020 11020 11020 11019 11019 11019 11019 11018 11018 11018 11018 11018 11018 11018 11018 11018 11018 11017 11016 11015 11015 11014 11013 11012 11011 11011 11010 11009 11008 11007 11006 11005 11005 11004 11003 11002 11001 11000 10999 10998 10997 10997 10996 10995 10994 10993 10991 10990 10989 10987 10985 10984
11035 11034 11033 11032 11032 11031 11030 11029 11029 11029 11028 11028 11028 11027 11027 11027 11026 11025 11025 11024 11024 11024 11023 11023 11023 11023 11023 11023 11023 11023 11023 11023 11023 11023 11023 11022 11022 11022 11021 11021 11021 11020 11020 11020 11020 11020 11020 11020 11020 11019 11019 11019 11018 11017 11016 11015 11014 11014 11013 11012 11012 11011 11010 11009 11008 11007 11006 11005 11004 11003 11002 11002 11001 11000 11000 10999 10998 10997 10996 10995 10993 10992 10991 10989 10988
11035 11035 11033 11032 11032 11031 11031 11030 11029 11029 11029 11028 11028 11028 11027 11027 11027 11026 11025 11025 11025 11025 11025 11025 11025 11025 11024 11024 11024 11024 11025 11025 11025 11025 11025 11024 11024 11024 11023 11023 11022 11022 11022 11021 11021 11021 11021 11021 11021 11021 11020 11020 11019 11018 11018 11017 11016 11016 11015 11014 11014 11013 11012 11011 11011 11010 11009 11008 11006 11005 11005 11004 11003 11003 11002 11001 11001 11000 10999 10998 10997 10995 10994 10993 10992
11035 11035 11034 11033 11032 11031 11031 11031 11030 11030 11029 11029 11029 11028 11028 11027 11027 11026 11026 11026 11025 11026 11026 11026 11026 11026 11026 11026 11025 11025 11026 11026 11026 11027 11026 11026 11026 11026 11025 11025 11024 11024 11023 11023 11023 11022 11022 11022 11022 11021 11021 11020 11020 11019 11019 11018 11018 11017 11017 11016 11015 11015 11014 11013 11013 11012 11011 11010 11009 11008 11007 11006 11005 11004 11004 11003 11003 11002 11001 11001 11000 10998 10997 10996 10995
11034 11034 11033 11033 11032 11032 11031 11031 11031 11031 11030 11029 11029 11029 11028 11028 11027 11027 11027 11026 11026 11026 11026 11026 11026 11027 11027 11027 11027 11026 11026 11027 11027 11028 11028 11028 11028 11027 11027 11027 11026 11026 11025 11025 11025 11024 11024 11023 11023 11023 11022 11022 11021 11021 11020 11020 11019 11019 11018 11017 11017 11016 11016 11015 11014 11014 11013 11012 11011 11010 11009 11008 11007 11006 11006 11005 11004 11004 11003 11003 11002 11001 11000 10999 10999
11032 11033 11033 11032 11032 11032 11032 11031 11031 11031 11030 11030 11029 11029 11029 11028 11028 11027 11027 11027 11026 11026 11026 11026 11026 11026 11027 11027 11027 11027 11027 11027 11027 11028 11028 11028 11029 11029 11029 11028 11028 11028 11027 11027 11026 11026 11026 11025 11025 11024 11023 11023 11022 11022 11021 11021 11020 11020 11019 11019 11018 11018 11017 11017 11016 11015 11014 11013 11013 11012 11011 11010 11009 11008 11008 11007 11006 11006 11005 11005 11004 11003 11003 11002 11001
11031 11032 11032 11031 11031 11031 11031 11031 11031 11031 11031 11030 11030 11029 11029 11028 11028 11028 11027 11027 11027 11026 11026 11026 11026 11026 11026 11027 11027 11028 11028 11027 11028 11028 11028 11028 11029 11029 11029 11029 11029 11029 11028 11028 11028 11027 11027 11026 11026 11025 11025 11024 11023 11023 11022 11022 11021 11021 11020 11020 11019 11019 11018 11018 11017 11017 11016 11015 11014 11013 11012 11012 11011 11010 11010 11009 11008 11008 11007 11006 11006 11005 11004 11004 11003
11029 11030 11030 11030 11030 11030 11030 11030 11031 11031 11030 11030 11030 11029 11029 11029 11028 11028 11027 11027 11027 11027 11026 11026 11026 11026 11026 11026 11027 11027 11027 11028 11027 11028 11028 11028 11028 11028 11028 11028 11029 11029 11029 11028 11028 11028 11028 11027 11027 11026 11025 11025 11024 11024 11023 11023 11022 11021 11021 11020 11020 11019 11019 11018 11017 11017 11017 11016 11015 11014 11014 11013 11012 11011 11011 11010 11010 11009 11009 11008 11008 11007 11006 11006 11005
11028 11028 11029 11029 11029 11029 11029 11030 11030 11030 11030 11030 11029 11029 11028 11028 11028 11028 11027 11027 11026 11026 11026 11026 11026 11025 11025 11025 11025 11026 11026 11027 11027 11027 11027 11027 11027 11027 11028 11028 11028 11028 11028 11028 11028 11028 11028 11027 11027 11027 11026 11025 11025 11024 11024 11023 11022 11022 11021 11020 11020 11019 11019 11018 11018 11017 11017 11016 11016 11015 11014 11014 11013 11012 11012 11012 11011 11011 11010 11009 11009 11008 11008 11007 11007
11025 11026 11027 11027 11027 11027 11028 11028 11029 11029 11029 11029 11029 11029 11028 11028 11027 11027 11027 11026 11026 11026 11025 11025 11025 11025 11025 11024 11024 11024 11025 11025 11026 11026 11026 11026 11026 11026 11027 11028 11028 11028 11028 11028 11028 11028 11028 11027 11027 11027 11026 11026 11026 11025 11024 11023 11023 11022 11021 11020 11020 11019 11019 11018 11018 11017 11016 11015 11015 11015 11014 11014 11013 11013 11012 11012 11012 11011 11011 11010 11010 11009 11009 11008 11008
11023 11023 11023 11024 11025 11025 11026 11026 11026 11027 11028 11027 11028 11028 11028 11027 11027 11026 11026 11025 11025 11025 11025 11024 11024 11024 11024 11024 11023 11023 11023 11024 11024 11024 11024 11024 11025 11026 11026 11027 11027 11028 11028 11027 11027 11027 11027 11026 11026 11026 11026 11026 11025 11025 11024 11023 11023 11022 11021 11020 11019 11019 11018 11018 11017 11017 11017 11016 11014 11014 11014 11014 11013 11012 11012 11012 11012 11011 11011 11011 11010 11010 11010 11009 11009
11019 11019 11020 11021 11022 11022 11023 11023 11024 11025 11026 11026 11026 11026 11026 11026 11026 11025 11025 11025 11024 11024 11024 11023 11023 11023 11023 11023 11023 11022 11022 11022 11022 11022 11022 11022 11023 11024 11025 11026 11026 11026 11026 11026 11025 11025 11025 11025 11025 11025 11025 11024 11024 11023 11023 11023 11022 11021 11021 11020 11019 11018 11018 11017 11016 11016 11016 11016 11015 11013 11013 11013 11013 11012 11012 11011 11011 11011 11010 11010 11010 11010 11010 11009 11009
11014 11016 11016 11017 11018 11018 11019 11020 11021 11022 11023 11024 11024 11024 11024 11024 11024 11024 11024 11024 11024 11023 11023 11022 11022 11021 11021 11021 11021 11021 11021 11021 11021 11021 11021 11021 11021 11022 11023 11023 11024 11024 11023 11023 11023 11023 11023 11023 11023 11023 11023 11023 11022 11022 11022 11021 11021 11020 11020 11019 11018 11017 11017 11017 11016 11015 11014 11014 11014 11014 11012 11011 11011 11011 11011 11010 11010 11010 11009 11009 11009 11009 11009 11009 11008
11010 11011 11012 11013 11014 11015 11016 11016 11017 11019 11020 11020 11020 11021 11021 11021 11021 11022 11022 11022 11022 11022 11022 11022 11021 11020 11020 11019 11019 11020 11020 11020 11020 11019 11019 11019 11019 11020 11020 11021 11021 11020 11021 11021 11020 11020 11020 11021 11021 11021 11021 11020 11020 11020 11020 11019 11019 11018 11018 11018 11016 11015 11016 11016 11015 11014 11012 11011 11011 11012 11012 11011 11010 11009 11009 11009 11008 11008 11008 11007 11007 11007 11007 11007 11007
11005 11006 11007 11008 11009 11010 11012 11012 11013 11015 11016 11016 11016 11016 11017 11017 11018 11018 11019 11019 11020 11020 11020 11020 11020 11019 11018 11018 11018 11018 11018 11018 11018 11017 11017 11017 11017 11017 11018 11018 11018 11018 11019 11018 11018 11017 11017 11018 11018 11018 11018 11018 11017 11017 11017 11017 11016 11016 11015 11015 11015 11013 11013 11014 11013 11012 11011 11009 11008 11008 11009 11009 11008 11007 11007 11006 11006 11006 11006 11006 11006 11006 11006 11006 11005
11000 11001 11001 11002 11003 11005 11007 11008 11009 11011 11012 11011 11011 11012 11012 11012 11013 11014 11015 11016 11016 11016 11017 11017 11017 11017 11016 11016 11016 11016 11016 11016 11015 11015 11015 11014 11014 11014 11015 11015 11015 11016 11017 11016 11015 11015 11015 11015 11015 11015 11016 11016 11015 11015 11015 11014 11013 11013 11012 11012 11012 11011 11011 11011 11011 11010 11009 11008 11006 11005 11006 11006 11007 11006 11005 11004 11004 11004 11003 11004 11004 11004 11004 11004 11004
10995 10995 10996 10997 10997 10999 11001 11003 11005 11007 11007 11006 11007 11008 11008 11008 11009 11010 11011 11012 11013 11013 11014 11013 11013 11014 11014 11014 11013 11014 11014 11013 11012 11012 11012 11012 11012 11012 11012 11012 11012 11013 11013 11013 11013 11013 11013 11012 11012 11012 11013 11013 11013 11013 11013 11012 11011 11010 11009 11009 11009 11009 11008 11009 11009 11008 11007 11007 11005 11003 11003 11003 11003 11003 11003 11002 11002 11002 11001 11001 11002 11003 11002 11002 11003
10989 10989 10990 10991 10991 10993 10995 10997 11000 11002 11002 11001 11002 11003 11003 11004 11005 11005 11006 11008 11009 11010 11010 11010 11010 11010 11011 11011 11011 11011 11010 11010 11009 11009 11009 11009 11009 11009 11009 11009 11009 11009 11009 11010 11010 11010 11010 11010 11010 11010 11010 11011 11011 11011 11011 11010 11009 11008 11007 11006 11006 11006 11006 11006 11006 11006 11006 11005 11004 11002 11001 11000 11000 11001 11000 11000 11000 11000 11000 10999 11000 11000 11000 11001 11001